Regional Weather Roundup
Issued by NWS

Home | Current Version | Previous Version | Graphics & Text | Print | Product List | Glossary On
Versions: 1 2 3 4 5 6 7 8 9 10 11 12 13 14 15 16 17 18 19 20 21 22 23 24 25 26 27 28 29 30 31 32 33 34 35 36 37 38 39 40 41 42 43 44 45 46 47 48 49 50
000
ASUS43 KLMK 012110
RWRKY
KENTUCKY REGIONAL WEATHER ROUNDUP
NATIONAL WEATHER SERVICE LOUISVILLE KY
500 PM EDT SUN MAY 01 2016

NOTE "FAIR" INDICATES FEW OR NO CLOUDS BELOW 12,000 FEET
WITH NO SIGNIFICANT WEATHER AND/OR OBSTRUCTIONS TO VISIBILITY.

KYZ001>023-026-027-061>063-070>075-012200-
WESTERN AND SOUTH CENTRAL KENTUCKY

CITY           SKY/WX    TMP DP  RH WIND       PRES   REMARKS
PADUCAH        MOSUNNY   80  65  59 W10       29.89F
HENDERSON      MOSUNNY   81  64  57 SW12      29.87F
OWENSBORO      MOSUNNY   81  66  60 SW17G23   29.89F
HOPKINSVILLE   DRIZZLE   72  65  79 SW13      29.93S
BOWLING GREEN  MOSUNNY   80  65  59 SW9       29.91F
GLASGOW        CLOUDY    77  63  60 SW7       29.91F
$$

KYZ024-025-028>034-038-045-046-053-012200-
NORTH CENTRAL KENTUCKY

CITY           SKY/WX    TMP DP  RH WIND       PRES   REMARKS
LOUISVILLE/SDF LGT RAIN  67  62  84 NW3       29.91S
LOUISVILLE/LOU LGT RAIN  66  63  90 SE6       29.92R FOG
FORT KNOX      MOSUNNY   72  62  72 S6        29.90S
$$

KYZ035>037-039>044-047>052-055>060-089>105-012200-
NORTHEAST KENTUCKY

CITY           SKY/WX    TMP DP  RH WIND       PRES   REMARKS
LEXINGTON      CLOUDY    64  59  83 VRB5      29.91R THUNDER
COVINGTON      CLOUDY    78  56  46 W7        29.88F
FRANKFORT      CLOUDY    65  57  75 N12       29.94R
$$

KYZ054-064>069-076>088-106>120-012200-
SOUTHEAST KENTUCKY

CITY           SKY/WX    TMP DP  RH WIND       PRES   REMARKS
JACKSON        CLOUDY    80  62  54 VRB3      29.90F
LONDON         MOSUNNY   81  61  50 SW10      29.90F
SOMERSET       CLOUDY    79  59  50 W17       29.93R
MIDDLESBORO    CLOUDY    79  62  55 SW9G16    29.93F
MONTICELLO     PTCLDY    81  64  56 W21G29    29.94S
$$




USA.gov is the U.S. government's official web portal to all federal, state and local government web resources and services.